Location: Lane
(33.5226°N, 79.8788°W)
Time: 12:58:46
(UTC+00:00)

Vanguard 1 - Visible Passes

Search period start: 05 October 2022 00:00
Search period end: 15 October 2022 00:00
Orbit: 649 x 3832 km, 34.2° (Epoch: 04 October)

Date Brightness Start Highest point End Pass type
(mag) Time Alt. Az. Time Alt. Az. Time Alt. Az.
05 Oct 11.9 01:38:41 10° WSW 01:41:46 14° SW 01:41:59 14° SW visible
05 Oct 10.9 23:34:03 10° WNW 23:43:11 53° SSW 23:48:32 10° SE visible
06 Oct 11.3 23:55:24 10° W 00:03:33 39° SW 00:08:38 10° SE visible
08 Oct 11.8 00:16:56 10° W 00:23:47 27° SW 00:28:25 10° SSE visible
09 Oct 12.1 00:38:57 10° W 00:43:52 18° SW 00:47:37 10° S visible
10 Oct 12.5 01:03:09 10° WSW 01:03:52 10° SW 01:04:33 10° SW visible
11 Oct 12.2 23:16:16 10° W 23:25:42 32° SW 23:31:31 10° SSE visible
12 Oct 12.4 23:38:16 10° W 23:45:44 22° SW 23:50:51 10° S visible
14 Oct 12.8 00:01:12 10° W 00:05:40 14° SW 00:09:13 10° SSW visible
